611  
ASUS41 KBOX 231804  
RWRBOX  
 
REGIONAL WEATHER ROUNDUP  
NATIONAL WEATHER SERVICE BOSTON/NORTON MA  
100 PM EST SAT JAN 23 2021  
 
NOTE: "FAIR" INDICATES FEW OR NO CLOUDS BELOW 12,000 FEET WITH NO  
SIGNIFICANT WEATHER AND/OR S TO VISIBILITY
.  
 
MAZALL-231900-  
EASTERN MASSACHUSETTS  
 
CITY SKY/WX TMP DP RH WIND PRES REMARKS
 
BOSTON MOSUNNY 29 6 38 NW21G29 29.85S WCI 16  
6HR MIN TEMP: 27; 6HR MAX TEMP: 30; 6HR PCP: TRACE;  
 
BEVERLY MOSUNNY 28 9 44 NW17G30 29.84S WCI 16  
LAWRENCE MOSUNNY 25 8 48 NW17G25 29.87S WCI 12  
BEDFORD MOSUNNY 28 6 39 W17 29.85S WCI 16  
BLUE HILL N/A 28 8 43 W21G38 29.78F WCI 15  
NORWOOD MOSUNNY 31 8 38 NW16G26 29.85F WCI 20  
MARSHFIELD SUNNY 32 9 37 NW12G22 29.82F WCI 23  
PLYMOUTH SUNNY 31 9 39 NW15G26 29.81F WCI 20  
TAUNTON PTSUNNY 32 10 40 NW12G24 29.83F WCI 23  
NEW BEDFORD PTSUNNY 31 10 41 W13G20 29.83F WCI 21  

 
 
MAZALL-231900-  
CAPE COD AND THE ISLANDS  
 
CITY SKY/WX TMP DP RH WIND PRES REMARKS
 
FALMOUTH PTSUNNY 30 10 43 SW17G26 29.82F WCI 18  
HYANNIS PTSUNNY 33 13 43 NW14G22 29.79S WCI 23  
CHATHAM CLOUDY 31 12 45 NW10G24 29.81F WCI 22  
PROVINCETOWN MOSUNNY 30 15 53 NW22G30 29.82F WCI 17  
NANTUCKET PTSUNNY 32 14 47 W14G24 29.81F WCI 22  
MARTHAS VNYRD CLOUDY 33 12 41 W17G25 29.83S WCI 22  

 
 
MAZALL-231900-  
CENTRAL AND WESTERN MASSACHUSETTS  
 
CITY SKY/WX TMP DP RH WIND PRES REMARKS
 
WORCESTER SUNNY 24 5 44 NW29G38 29.81F WCI 7  
6HR MIN TEMP: 22; 6HR MAX TEMP: 25;  
 
FITCHBURG SUNNY 26 6 42 W23G35 29.87S WCI 11  
ORANGE SUNNY 25 5 42 NW22G31 29.90S WCI 10  
SPRINGFIELD NOT AVBL  
WESTFIELD SUNNY 25 5 42 NW23G36 29.94F WCI 10  
NORTH ADAMS CLOUDY 19 4 51 W15G25 29.96F WCI 5  
PITTSFIELD CLOUDY 16 4 59 NW23G32 29.93R WCI -2  

 
 
RIZALL-231900-  
RHODE ISLAND  
 
CITY SKY/WX TMP DP RH WIND PRES REMARKS
 
PROVIDENCE MOSUNNY 31 8 38 NW13G29 29.87S WCI 21  
6HR MIN TEMP: 27; 6HR MAX TEMP: 32;  
 
NEWPORT SUNNY 30 11 45 NW16G28 29.85S WCI 19  
BLOCK ISLAND SUNNY 30 11 45 NW16G35 29.89S WCI 19  
SMITHFIELD SUNNY 28 10 46 W17G29 29.84F WCI 16  
WESTERLY SUNNY 28 6 39 NW10G26 29.89F WCI 19  

 
 
CTZALL-231900-  
CONNECTICUT  
 
CITY SKY/WX TMP DP RH WIND PRES REMARKS
 
BRADLEY INTL MOSUNNY 27 4 37 NW23G32 29.95F WCI 12  
6HR MIN TEMP: 24; 6HR MAX TEMP: 28;  
 
HARTFORD MOSUNNY 29 2 31 NW24G33 29.97F WCI 15  
BRIDGEPORT SUNNY 34 7 32 NW16G30 29.97S WCI 23  
DANBURY SUNNY 29 4 34 NW14G31 29.98F WCI 18  
GROTON SUNNY 31 7 36 NW24G33 29.91S WCI 17  
NEW HAVEN SUNNY 33 10 38 NW16G30 29.96F WCI 23  
CHESTER FAIR 30 3 31 NW21G31 29.92S WCI 17  
MERIDEN FLURRIES 29 3 33 NW17G28 29.96F WCI 17  
WILLIMANTIC MOSUNNY 27 7 42 NW12G24 29.92F WCI 17  
OXFORD MOSUNNY 27 8 44 NW14G24 29.94F WCI 16  

 
 
MEZ002-015-021-024-NHZ003-005-008-011-012-014-VTZ005-008-231900-  
NORTHERN NEW ENGLAND  
 
CITY SKY/WX TMP DP RH WIND PRES REMARKS
 
PORTLAND ME MOSUNNY 26 7 44 NW13G22 29.80F WCI 15  
6HR MIN TEMP: 20; 6HR MAX TEMP: 27;  
 
BANGOR ME MOSUNNY 25 8 48 NW15G25 29.72F WCI 13  
CONCORD NH SUNNY 24 4 42 NW20G29 29.87S WCI 10  
MANCHESTER NH PTSUNNY 24 7 48 NW13G26 29.86S WCI 12  
NASHUA NH PTSUNNY 26 7 44 NW18G25 29.87F WCI 13  
PORTSMOUTH NH NOT AVBL  
JAFFREY NH MOSUNNY 21 4 47 NW12G23 29.83S WCI 9  
KEENE NH PTSUNNY 24 8 50 N12G20 29.91S WCI 13  
BURLINGTON VT PTSUNNY 15 1 53 NW16 30.02S WCI -1  
MT. WASHINGTON NOT AVBL  

 
 
NYZ052-076-231900-  
EASTERN NEW YORK  
 
CITY SKY/WX TMP DP RH WIND PRES REMARKS
 
ALBANY MOSUNNY 19 5 54 W24G37 30.06R WCI 2  
6HR MIN TEMP: 16; 6HR MAX TEMP: 19; 6HR PCP: TRACE;  
 
NEW YORK CITY PTSUNNY 32 11 41 NW23G32 30.04S WCI 19  
6HR MIN TEMP: 30; 6HR MAX TEMP: 33;  
 

 
 
ANZALL-231900-  
MARINE OBSERVATIONS  
 
STATION/POSITION TIME TEMP WIND PRES VSBY WAVE
 
AIR SEA DIR/SP/G HT/PER  
(UTC) (F) (DEG/KT/KT) (MB) (MI) (FT/S)  
BOSTON BUOY 1740 28 43 320/ 19/ 25 1010.7F  
BUZZARDS BAY 1700 300/ 22/ 24 1011.7F  
NANTUCKET SOUND 1740 40 310/ 17/ 21 N/A  
MASS BAY-STELLWA 1704 28 310/ 21/ 27 1009.1F 1 3/4 3/ 4  
ISLE OF SHOALS 1700 25 310/ 22/ 25 1009.4F  
S OF BLOCK IS 1726 47 N/A 7/ 6  

 
   
.....................KEY......................
 
 
SKY/WX - SKY CONDITION/PRESENT WEATHER  
TMP - TEMPERATURE IN FAHRENHEIT  
DWPT - DEWPOINT IN FAHRENHEIT  
RH - RELATIVE HUMIDITY IN PERCENT  
WIND - DIRECTION AND SPEED IN MPH  
PRES - MEAN SEA LEVEL PRESSURE IN INCHES OF HG  
WCI - WIND CHILL INDEX  
VSB - VISIBILITY IN MILES  
HX - HEAT INDEX  
TC - TEMPERATURE IN CELSIUS  
VRB - VARIABLE WIND DIRECTION  
N/A - NOT AVAILABLE  
 
 
CLICK HERE TO GO TO PREVIOUS BULLETINS.

The Nexlab MA Page
The Nexlab RI Page
The Nexlab NH Page
The Nexlab CT Page Main Text Page